Warning: Javascript must be enabled to use all the features on this page!


Page Loading - Please Wait...

Click to hideNews Bulletins

Peak Streamflow for the Nation

USGS 04249000 OSWEGO RIVER AT LOCK 7, OSWEGO NY

Oswego County, New York
Hydrologic Unit Code 04140203
Latitude  43°27'06", Longitude  76°30'19" NAD83
Drainage area 5,100  square miles
Gage datum 244.47 feet above NAVD88
Output formats
Table
Graph
Tab-separated file
peakfq (watstore) format
Reselect output format
Water
Year
Date Gage
Height
(feet)
Stream-
flow
(cfs)
1901 1901-04-21   20,2006
1902 1902-03-13   22,5006
1903 1903-03-25   20,3006
1904 1904-04-02   22,2006
1905 1905-03-28 11.103 21,3006
1906 1906-04-10 8.403 14,9006
1934 1934-04-15 8.226 16,4006
1935 1935-07-14 8.32 16,9006
1936 1936-03-28 13.10 37,5006
1937 1937-04-24 9.10 21,2006
1938 1938-03-01 8.55 18,0006
1939 1939-03-08 9.87 23,2006
1940 1940-04-10 13.46 35,0006
1941 1941-04-07 9.19 19,9006
1942 1942-03-18 11.09 25,9006
1943 1943-05-15 10.92 25,4006
1944 1944-04-14 8.15 16,0006
1945 1945-03-26 10.34 23,4006
1946 1945-10-04 9.94 22,0006
1947 1947-04-08 11.07 25,1006
1948 1948-03-26 9.05 18,4006
1949 1949-02-17 8.42 16,3006
1950 1950-03-30 12.17 29,4006
1951 1951-02-22 10.38 23,5006
1952 1952-03-12 9.002 18,7006
1953 1953-03-28 8.78 18,0006
1954 1954-05-09 9.49 20,0006
1955 1955-03-23 10.55 23,6006
1956 1956-03-12 11.142 26,8006
1957 1957-03-15 7.97 15,2006
1958 1958-04-23 9.08 19,1006
1959 1959-04-06 10.16 23,1006
1960 1960-04-04 12.26 31,2006
1961 1961-02-26 10.07 22,7006
1962 1962-03-16 7.91 15,2006
1963 1963-03-28 9.84 21,9006
1964 1964-03-18 8.63 17,5006
1965 1965-04-26 7.36 13,2006
1966 1966-03-06 8.66 17,6006
1967 1967-05-17 7.24 12,9006
1968 1968-06-30 8.77 18,1006
1969 1969-02-04 9.56 20,9006
1970 1970-04-06 9.78 21,6006
1971 1971-03-18   22,6001,6
1972 1972-06-27   32,3001,6,9
1973 1973-04-07   23,0001,6
1974 1974-04-07   19,9001,6
1975 1975-09-29   23,4001,6
1976 1976-03-08   31,0001,6
1977 1977-03-14   21,9001,6
1978 1978-03-29   27,0001,6
1979 1979-03-10   29,7001,6
1980 1980-03-23   19,9001,6
1981 1981-02-24   20,5001,6
1982 1981-10-31   21,5001,6
1983 1983-05-03   26,1001,6
1984 1984-02-16   20,2001,6
1985 1985-02-26   18,5001,6
1986 1986-03-20   20,5001,6
1987 1986-12-04   15,6001,6
1988 1988-05-24   12,2001,6
1989 1989-05-15   18,2001,6
1990 1990-05-22   22,1001,6
1991 1991-01-01   20,1001,6
1992 1992-03-27 9.47 20,5006
1993 1993-04-27 13.13 36,9006
1994 1994-04-14 11.76 30,3006
1995 1995-03-08 8.56 17,0006
1996 1996-01-20 10.20 23,4006
1997 1996-11-14 10.06 22,8006
1998 1998-01-12 11.04 27,0006
1999 1999-01-25 8.90 18,3006
2000 2000-05-17 9.87 22,0006
2001 2001-04-14 10.24 23,6006
2002 2002-05-17 9.75 21,6006
2003 2003-04-07 10.71 25,5006
2004 2004-05-24 9.43 21,2006
2005 2005-04-05 10.80 26,6006
2006 2006-07-13 9.58 21,8006
2007 2007-03-28 10.97 27,2006
2008 2008-02-07 9.63 22,0006
2009 2008-12-29 9.87 23,0006
2010 2010-03-24 8.85 19,0006
2011 2011-04-29 11.80 30,6006
2012 2012-01-28 8.82 18,9006
2013 2013-06-14 9.33 20,9006
2014 2014-04-10 9.79 22,7006
2015 2015-04-04 9.37 21,0006
2016 2016-02-26 10.03 23,6006
2017 2017-04-09 11.09 27,7006
2018 2018-01-12 9.86 22,9006
2019 2019-05-14 9.76 22,2006
2020 2019-11-02 9.04 19,7006
?
  Peak Gage-Height Qualification Codes.
?
  Peak Streamflow Qualification Codes.